Location: Bathurst
(33.4193°S, 149.5775°E)
Time: 02:49:01
(UTC+10:00)

A-11 Canister half - Pass Details

Date: 20 June 2021
Orbit: 1513 x 1687 km, 47.2° (Epoch: 24 July)

Event Time Altitude Azimuth Distance (km) Brightness Sun altitude
Rises 18:02:42 0° 269° (W) 4,695 13.0 -12.5°
Reaches altitude 10° 18:06:01 10° 261° (W) 3,734 12.0 -13.2°
Maximum altitude 18:14:46 40° 193° (SSW) 2,207 9.8 -14.9°
Enters shadow 18:21:50 17° 133° (SE) 3,324 10.2 -16.3°
